Location: Malvern Link
(52.1333°N, 2.3000°W)
Time: 11:38:51
(UTC+00:00)

MOZHAYETS 4 - Pass Details

Date: 01 July 2022
Orbit: 660 x 679 km, 98.2° (Epoch: 10 August)

Event Time Altitude Azimuth Distance (km) Brightness Sun altitude
Exits shadow 02:38:03 - 176° (S) 2,594 10.3 -8.4°
Reaches altitude 10° 02:39:15 10° 179° (S) 2,109 9.8 -8.3°
Maximum altitude 02:43:48 58° 259° (WSW) 789 7.9 -7.9°
Drops below altitude 10° 02:48:22 10° 339° (NNW) 2,115 10.8 -7.5°
Sets 02:50:39 0° 343° (NNW) 3,030 11.7 -7.3°
